Location: Chiroubles
(46.1812°N, 4.6660°E)
Time: 16:43:25
(UTC+00:00)

Cosmos 1763 Rocket - Pass Details

Date: 15 August 2020
Orbit: 732 x 780 km, 74.0° (Epoch: 23 September)

Event Time Altitude Azimuth Distance (km) Brightness Sun altitude
Rises 21:02:58 0° 333° (NNW) 3,276 8.2 -19.8°
Reaches altitude 10° 21:05:26 10° 328° (NNW) 2,343 7.2 -20.1°
Maximum altitude 21:10:31 47° 256° (WSW) 1,032 4.3 -20.7°
Enters shadow 21:13:12 25° 197° (SSW) 1,517 4.7 -21.0°
